Sergeant Bluff, IA

7:34 PM CST on December 03, 2016 (GMT -0600)
Sioux Gateway

Weather History for KSUX - July, 2012

Change the Weather History Date:

Friday, July 27, 2012

  Actual Average Record
Temperature  
Mean Temperature 74 °F 74 °F  
Max Temperature 87 °F 85 °F 104 °F (1935)
Min Temperature 61 °F 63 °F 47 °F (2013)
Degree Days  
Heating Degree Days 0 0  
Month to date heating degree days 0 0  
Since 1 June heating degree days 14 27  
Since 1 July heating degree days 0 0  
Cooling Degree Days 9 9  
Month to date cooling degree days 424 260  
Year to date cooling degree days 854 512  
Since 1 June cooling degree days 689 448  
Growing Degree Days 24 (Base 50)    
Moisture  
Dew Point 59 °F    
Average Humidity 61    
Maximum Humidity 84    
Minimum Humidity 37    
Precipitation  
Precipitation 0.00 in 0.11 in 1.67 in (1892)
Month to date precipitation 0.78 3.02  
Year to date precipitation 17.43 16.89  
Snow  
Snow 0.00 in 0.00 in 0.00 in ()
Month to date snowfall 0.0 0.0  
Since 1 June snowfall 0.0 0.0  
Since 1 July snowfall 0.0 0.0  
Snow Depth 0.00 in    
Sea Level Pressure  
Sea Level Pressure 30.02 in    
Wind  
Wind Speed 7 mph (North)    
Max Wind Speed 15 mph    
Max Gust Speed 20 mph    
Visibility 10 miles    
Events      
T = Trace of Precipitation, MM = Missing Value Source: NWS Daily Summary

Daily Weather History Graph

Daily Weather History Graph

Search for Another Location

Airport or City:

Trip Planner

Search our weather history database for the weather conditions in past years. The results will help you decide how hot, cold, wet, or windy it might be!

Date:

Astronomy

Jul. 27, 2012 Rise Set
Actual Time 6:13 AM CDT 8:49 PM CDT
Civil Twilight 5:41 AM CDT 9:22 PM CDT
Nautical Twilight 5:00 AM CDT 10:02 PM CDT
Astronomical Twilight 4:14 AM CDT 10:48 PM CDT
Moon 3:49 PM CDT (7/27) 12:47 AM CDT (7/27)
Length of Visible Light 15h 41m
Length of Day
14h 36m
Waxing Gibbous, 65% of the Moon is Illuminated
Jul 27
Waxing Gibbous
Aug 1
Full
Aug 9
Last Quarter
Aug 17
New
Aug 24
First Quarter

Hourly Weather History & Observations

Time (CDT) Temp. Heat Index Dew Point Humidity Pressure Visibility Wind Dir Wind Speed Gust Speed Precip Events Conditions
12:52 AM 68.0 °F - 57.0 °F 68% 29.93 in 10.0 mi NW 5.8 mph - N/A   Clear
1:52 AM 68.0 °F - 55.9 °F 65% 29.94 in 10.0 mi NW 6.9 mph - N/A   Clear
2:52 AM 66.0 °F - 55.9 °F 70% 29.96 in 10.0 mi NW 6.9 mph - N/A   Clear
3:52 AM 64.9 °F - 57.0 °F 75% 29.97 in 10.0 mi NW 8.1 mph - N/A   Clear
4:52 AM 63.0 °F - 57.0 °F 81% 29.98 in 10.0 mi NW 6.9 mph - N/A   Clear
5:52 AM 62.1 °F - 57.0 °F 84% 29.99 in 10.0 mi NW 6.9 mph - N/A   Clear
6:52 AM 62.1 °F - 57.9 °F 86% 30.01 in 10.0 mi WNW 3.5 mph - N/A   Clear
7:52 AM 64.9 °F - 59.0 °F 81% 30.02 in 10.0 mi NW 8.1 mph - N/A   Clear
8:45 AM 66.2 °F - 60.8 °F 83% 30.05 in 10.0 mi NW 8.1 mph - N/A   Mostly Cloudy
8:52 AM 66.9 °F - 60.1 °F 79% 30.04 in 10.0 mi NNW 9.2 mph - N/A   Overcast
9:28 AM 69.8 °F - 60.8 °F 73% 30.05 in 10.0 mi NNW 11.5 mph - N/A   Partly Cloudy
9:52 AM 72.0 °F - 60.1 °F 66% 30.04 in 10.0 mi North 11.5 mph - N/A   Clear
10:52 AM 75.0 °F - 59.0 °F 57% 30.05 in 10.0 mi NW 11.5 mph - N/A   Scattered Clouds
11:52 AM 78.1 °F - 59.0 °F 52% 30.05 in 10.0 mi NNW 6.9 mph 18.4 mph N/A   Clear
12:52 PM 80.1 °F 80.6 °F 57.9 °F 47% 30.04 in 10.0 mi North 9.2 mph 19.6 mph N/A   Clear
1:52 PM 82.0 °F 82.0 °F 57.9 °F 44% 30.05 in 10.0 mi Variable 3.5 mph - N/A   Clear
2:52 PM 84.0 °F 83.5 °F 57.9 °F 41% 30.04 in 10.0 mi Variable 3.5 mph - N/A   Clear
3:52 PM 84.0 °F 83.3 °F 57.0 °F 40% 30.04 in 10.0 mi Variable 4.6 mph - N/A   Clear
4:52 PM 86.0 °F 84.9 °F 57.0 °F 37% 30.02 in 10.0 mi NE 9.2 mph - N/A   Clear
5:52 PM 84.0 °F 83.5 °F 57.9 °F 41% 30.02 in 10.0 mi ENE 9.2 mph - N/A   Clear
6:52 PM 82.9 °F 83.2 °F 60.1 °F 46% 30.01 in 10.0 mi ESE 8.1 mph - N/A   Clear
7:52 PM 79.0 °F - 61.0 °F 54% 30.01 in 10.0 mi ESE 9.2 mph - N/A   Clear
8:52 PM 73.4 °F - 60.8 °F 65% 30.05 in 10.0 mi ESE 4.6 mph - N/A   Clear
9:52 PM 70.0 °F - 61.0 °F 73% 30.06 in 10.0 mi ESE 4.6 mph - N/A   Clear
10:52 PM 69.1 °F - 61.0 °F 75% 30.07 in 10.0 mi East 3.5 mph - N/A   Clear
11:52 PM 69.1 °F - 60.1 °F 73% 30.07 in 10.0 mi East 4.6 mph - N/A   Clear